Tracking 29059 objects as of 18-Jun-2024
HD Live streaming from Space Station
objects crossing your sky now

SHIYAN 19 (SY-19)

Track SHIYAN 19 (SY-19) now!
10-day predictions


NORAD ID: 55861
Int'l Code: 2023-034A
Perigee: 475.1 km
Apogee: 492.3 km
Inclination: 97.5 °
Period: 94.1 minutes
Semi major axis: 6854 km
RCS: Unknown
Launch date: March 15, 2023
Source: People's Republic of China (PRC)
Launch site: Jiuquan Satellite Launch Center, China (JSC)
Your satellite tracking list
Your tracking list is empty




NASA's NSSDC Master Catalog

Two Line Element Set (TLE):
1 55861U 23034A   24170.20982468  .00008861  00000-0  30941-3 0  9993
2 55861  97.4555   1.3974 0012538 100.4731 259.7922 15.29750009 70170
Source of the keplerian elements: AFSPC